Satellite: TACSAT-3
Catalog number: 35001
Epoch time:      10327.49477394
Element set:    0450
Inclination:      040.4562 deg
RA of node:       335.9646 deg
Eccentricity:    0.0020986
Arg of perigee:   118.6184 deg
Mean anomaly:     241.6746 deg
Mean motion:   15.43740116 rev/day
Decay rate:      7.578e-05 rev/day^2
Epoch rev:           08524
Checksum:              309

Satellite: PHARMSAT
Catalog number: 35002
Epoch time:      10327.40364120
Element set:    0410
Inclination:      040.4710 deg
RA of node:       334.0792 deg
Eccentricity:    0.0023370
Arg of perigee:   121.3079 deg
Mean anomaly:     239.0027 deg
Mean motion:   15.44052169 rev/day
Decay rate:      6.584e-05 rev/day^2
Epoch rev:           08525
Checksum:              241

Satellite: HAWKSAT1
Catalog number: 35003
Epoch time:      10327.41830917
Element set:     445
Inclination:      040.4616 deg
RA of node:       322.8696 deg
Eccentricity:    0.0022479
Arg of perigee:   146.8516 deg
Mean anomaly:     213.3717 deg
Mean motion:   15.49362289 rev/day
Decay rate:     1.6400e-04 rev/day^2
Epoch rev:            8538
Checksum:              298

Satellite: CP6
Catalog number: 35004
Epoch time:      10326.39267207
Element set:    0449
Inclination:      040.4635 deg
RA of node:       326.4908 deg
Eccentricity:    0.0022131
Arg of perigee:   146.2049 deg
Mean anomaly:     214.0189 deg
Mean motion:   15.51054264 rev/day
Decay rate:     2.1731e-04 rev/day^2
Epoch rev:           08524
Checksum:              270

Satellite: AEROCUB3
Catalog number: 35005
Epoch time:      10327.29876736
Element set:    0535
Inclination:      040.4691 deg
RA of node:       303.2459 deg
Eccentricity:    0.0025150
Arg of perigee:   180.7929 deg
Mean anomaly:     179.2861 deg
Mean motion:   15.73897507 rev/day
Decay rate:    1.95324e-03 rev/day^2
Epoch rev:           08558
Checksum:              331

Satellite: METEOR-M
Catalog number: 35865
Epoch time:      10328.01857395
Element set:     862
Inclination:      098.7374 deg
RA of node:       020.4998 deg
Eccentricity:    0.0001738
Arg of perigee:   275.5478 deg
Mean anomaly:     084.5492 deg
Mean motion:   14.21833183 rev/day
Decay rate:       1.76e-06 rev/day^2
Epoch rev:            6143
Checksum:              326

Satellite: RS-38
Catalog number: 35869
Epoch time:      10328.04280522
Element set:     874
Inclination:      098.7365 deg
RA of node:       020.5652 deg
Eccentricity:    0.0003899
Arg of perigee:   266.8828 deg
Mean anomaly:     093.1898 deg
Mean motion:   14.21994215 rev/day
Decay rate:       1.77e-06 rev/day^2
Epoch rev:            6144
Checksum:              341

/EX




More information about the Keps mailing list